EHI
37 32 26 20 13 11 12 9 5 2 1 0 0 1 1 1 1 3 5 5 5 7 10 13 16 16 15 15 15 12 7 3 2 1 0 0 0 0 0 0 0 0 0
38 32 26 21 16 15 16 12 8 5 3 1 0 1 1 1 2 3 3 4 5 6 8 12 15 16 16 15 12 8 5 3 1 0 0 0 0 0 0 0 0 0 0
36 30 25 22 21 21 22 18 13 9 6 3 1 1 2 2 2 1 1 2 3 3 5 9 12 12 11 11 9 6 4 3 2 1 1 1 0 0 0 0 0 0 0
31 30 28 28 27 25 22 19 16 12 8 5 3 3 3 3 1 0 0 1 1 1 2 4 6 6 5 5 6 4 3 3 3 3 2 2 1 0 0 0 0 0 0
29 30 33 34 30 24 19 16 15 11 7 4 3 3 3 2 1 1 1 1 1 2 2 2 3 3 3 3 4 4 3 3 3 3 3 2 1 0 0 0 0 0 0
25 26 29 32 29 22 17 15 13 9 5 3 1 1 2 2 1 1 2 2 2 3 3 3 3 3 2 3 4 5 4 2 2 2 2 1 1 0 0 0 0 0 0
17 18 21 25 24 19 17 15 11 6 3 1 0 1 2 3 1 1 3 4 4 3 3 3 3 2 3 3 4 4 4 2 2 2 2 1 1 0 0 0 0 0 0
10 11 13 15 15 15 14 11 8 4 1 1 0 1 2 2 2 2 3 4 2 1 1 1 1 1 2 2 2 2 1 1 1 1 2 2 1 0 0 0 0 0 0
5 7 8 8 8 8 7 6 4 2 1 0 0 0 1 1 2 2 2 1 0 0 0 0 0 0 1 1 1 0 0 0 0 0 1 1 1 0 0 0 0 0 0
2 3 5 5 4 3 3 2 1 1 0 0 0 0 0 0 1 1 0 0 0 0 0 0 0 0 0 0 0 0 0 0 0 0 0 0 0 0 0 0 0 0 0
0 1 3 2 1 1 1 1 1 0 0 0 0 0 0 0 0 0 0 0 0 0 0 0 0 0 0 0 0 0 0 0 0 0 0 0 0 0 0 0 0 0 0
0 0 0 0 0 0 0 0 0 0 0 0 0 0 0 0 0 0 0 0 0 0 0 0 0 0 0 0 0 0 0 0 0 0 0 0 0 0 0 0 0 0 0
0 0 0 0 0 0 0 0 0 0 0 0 0 0 0 0 0 0 0 0 0 0 0 0 0 0 0 0 0 0 0 0 0 0 0 0 0 0 0 0 0 0 0
0 0 0 0 0 0 0 0 0 0 0 0 0 0 0 0 0 0 0 0 0 0 0 0 0 0 0 0 0 0 0 0 0 0 0 0 0 0 0 0 0 0 0
0 0 0 0 0 0 0 0 0 0 0 0 0 0 0 0 0 0 0 0 0 0 0 0 0 0 0 0 0 0 0 0 0 0 0 0 0 0 0 0 0 0 0
0 0 0 0 0 0 0 0 0 0 0 0 0 0 0 0 0 0 0 0 0 0 0 0 0 0 0 0 0 0 0 0 0 0 0 0 0 0 0 0 0 0 0
0 0 0 0 0 0 0 0 0 0 0 0 0 0 0 0 0 0 0 0 0 0 0 0 0 0 0 0 0 0 0 0 0 0 0 0 0 0 0 0 0 0 0
0 0 0 0 0 0 0 0 0 0 0 0 0 0 0 0 0 0 0 0 0 0 0 0 0 0 0 0 0 0 0 0 0 0 0 0 0 0 0 0 0 0 0
0 0 0 0 0 0 0 0 0 0 0 0 0 0 0 0 0 0 0 0 0 0 0 0 0 0 0 0 0 0 0 0 0 0 0 0 0 0 0 0 0 0 0
0 0 0 0 0 0 0 0 0 0 0 0 0 0 0 0 0 0 0 0 0 0 0 0 0 0 0 0 0 0 0 0 0 0 0 0 0 0 0 0 0 0 0
0 0 0 0 0 0 0 0 0 0 0 0 0 0 0 0 0 0 0 0 0 0 0 0 0 0 0 0 0 0 0 0 0 0 0 0 0 0 0 0 0 0 0
0 0 0 0 0 0 0 0 0 0 0 0 0 0 0 0 0 0 0 0 0 0 0 0 0 0 0 0 0 0 0 0 0 0 0 0 0 0 0 0 0 0 0
0 0 0 0 0 0 0 0 0 0 0 0 0 0 0 0 0 0 0 0 0 0 0 0 0 0 0 0 0 0 0 0 0 0 0 0 0 0 0 0 0 0 0
0 0 0 0 0 0 0 0 0 0 0 0 0 0 0 0 0 0 0 0 0 0 0 0 0 0 0 0 0 0 0 0 0 0 0 0 0 0 0 0 0 0 0
0 0 0 0 0 0 0 0 0 0 0 0 0 0 0 0 0 0 0 0 0 0 0 0 0 0 0 0 0 0 0 0 0 0 0 0 0 0 0 0 0 0 0
0 0 0 0 0 0 0 0 0 0 0 0 0 0 0 0 0 0 0 0 0 0 0 0 0 0 0 0 0 0 0 0 0 0 0 0 0 0 0 0 0 0 0
Wind_Speed
6 6 4 3 5 4 6 5 5 4 4 5 4 3 3 3 4 4 1 6 3 3 5 6 7 9 10 10 11 11 10 11 11 10 10 10 10 10 10 10 10 10 10
5 4 5 4 4 3 3 3 4 4 3 2 2 2 3 2 2 3 3 3 5 2 1 3 4 5 6 7 8 8 9 10 10 10 10 10 9 9 9 9 9 9 9
6 5 4 4 3 3 3 3 3 3 3 3 2 2 1 1 1 2 3 3 0 4 3 3 3 2 2 3 4 6 8 9 11 11 11 10 10 10 10 10 10 9 9
6 5 4 4 3 3 3 3 3 2 2 1 1 1 0 0 1 2 2 2 3 3 4 7 6 5 3 2 2 3 4 6 8 9 11 11 11 10 10 9 9 9 8
4 4 3 2 3 2 2 3 2 2 1 1 1 0 0 1 1 2 3 3 4 4 3 5 6 7 7 7 6 4 3 2 2 4 7 9 9 9 9 9 9 9 9
2 3 3 3 2 2 2 2 2 1 1 1 1 1 1 1 2 2 3 3 4 5 5 6 4 5 9 9 9 8 6 5 4 3 3 5 6 6 7 8 8 8 8
3 3 3 3 3 2 2 2 2 3 1 1 2 2 2 3 3 3 4 4 6 6 6 6 5 5 4 9 11 11 10 9 7 5 4 3 3 4 5 6 7 8 8
5 4 4 4 4 3 4 2 1 1 2 1 2 3 3 4 3 4 4 5 6 5 7 8 7 7 5 4 8 12 12 11 11 10 8 7 5 2 2 3 4 5 6
6 6 6 6 5 4 4 3 1 1 2 1 3 3 3 1 2 4 6 6 6 6 6 6 8 8 7 5 6 10 13 12 11 10 10 9 8 6 4 3 2 2 3
8 7 8 8 7 6 5 4 3 2 1 2 2 3 4 3 1 2 3 4 6 6 6 5 6 7 7 6 7 11 12 12 11 11 10 10 9 7 6 5 3 3 3
9 9 9 9 8 8 8 7 6 5 4 3 3 2 3 2 2 1 1 2 3 4 5 5 5 5 6 5 5 9 10 10 10 11 11 10 9 9 8 7 6 5 5
8 10 10 9 9 8 8 8 8 10 8 7 5 4 3 3 2 2 1 0 1 3 4 4 4 4 5 5 7 10 8 8 8 8 9 9 9 8 8 8 7 7 6
8 9 9 9 9 8 9 8 9 9 9 8 7 6 6 5 4 3 2 1 1 1 1 2 3 4 4 4 5 8 4 5 6 6 6 7 7 8 8 8 7 7 7
8 9 10 10 10 9 9 8 8 9 8 8 9 7 5 6 5 5 4 2 1 1 2 3 2 4 4 4 6 7 3 4 5 5 6 6 6 6 6 7 7 7 8
8 10 10 10 9 9 9 8 8 8 7 7 8 7 6 5 5 5 4 4 4 3 2 3 3 4 4 4 4 6 6 4 5 6 6 6 7 7 8 7 7 8 8
9 10 10 9 9 9 8 8 8 8 8 7 6 7 6 5 5 4 4 4 4 5 4 4 3 5 6 6 3 6 6 5 8 4 5 6 7 8 9 9 9 9 9
9 9 9 9 9 9 8 7 8 7 8 7 6 7 7 6 5 4 4 4 5 5 4 4 3 3 5 7 6 7 6 6 2 4 3 6 7 8 8 8 8 8 8
9 9 9 9 8 8 7 7 7 7 7 7 6 6 6 5 5 5 4 5 5 4 5 5 5 4 5 5 6 8 6 6 6 2 4 6 6 6 6 6 6 6 6
9 9 8 8 8 7 7 7 7 6 6 6 6 6 5 5 5 5 5 5 4 4 4 5 5 4 5 5 7 6 6 5 6 2 5 7 6 5 4 4 4 5 5
8 8 8 8 8 7 7 6 6 6 6 5 5 5 5 6 6 6 4 5 5 5 4 5 5 5 4 5 6 6 6 5 5 5 4 4 4 7 6 4 2 3 4
8 8 8 8 7 7 7 7 5 5 5 4 4 4 5 5 5 6 7 7 7 6 6 5 5 5 5 6 6 6 7 6 5 4 5 5 2 2 3 5 3 2 4
8 7 7 8 8 8 8 9 8 4 4 4 4 3 2 1 1 4 4 5 6 7 8 7 6 7 7 7 7 7 7 7 6 4 6 5 3 3 2 2 4 2 3
7 7 7 7 8 8 7 7 8 5 4 4 4 4 4 4 4 6 3 7 8 8 7 7 8 8 8 8 8 9 7 8 7 6 6 5 3 2 2 4 5 1 2
6 6 6 6 6 7 6 6 9 3 3 3 4 4 5 5 7 8 8 6 5 2 2 5 7 8 8 8 8 8 8 8 7 4 4 5 5 3 2 2 7 4 1
5 5 5 5 5 6 6 7 11 2 3 3 3 4 5 6 7 8 8 7 6 4 3 7 8 9 10 10 8 7 6 6 6 4 3 5 5 5 2 0 4 8 5
4 4 5 4 4 5 6 7 10 4 4 3 3 3 6 6 8 8 8 7 8 8 8 6 5 7 8 7 9 7 6 6 6 5 4 5 5 5 3 2 2 1 3
Wind_Direction
193 184 192 195 206 188 185 206 209 187 212 211 224 242 265 271 289 291 140 133 167 245 260 250 241 236 233 230 228 229 230 231 230 227 226 226 226 226 225 223 221 220 220
189 187 186 190 209 207 212 204 192 192 214 218 220 225 269 281 299 303 307 135 143 143 279 275 264 248 237 228 222 220 227 231 230 228 227 223 220 220 220 221 221 221 222
189 196 190 191 195 188 187 206 192 200 202 195 197 207 233 305 332 325 316 317 72 126 98 53 23 344 282 243 236 229 231 235 232 228 227 226 226 226 226 225 224 223 222
191 199 192 196 186 186 189 188 198 202 203 209 220 286 318 53 354 353 337 348 0 12 87 74 54 40 24 346 295 266 252 246 240 234 232 230 230 230 226 222 221 220 219
192 185 181 177 186 185 192 203 169 209 207 212 201 141 14 21 15 25 17 19 28 17 18 72 72 58 43 34 25 15 360 341 288 258 243 238 231 228 229 226 226 228 227
151 148 143 149 161 160 162 161 143 130 180 193 212 101 65 56 43 43 30 43 39 33 28 24 34 60 60 50 40 32 17 355 340 311 280 254 246 238 234 232 232 235 236
108 119 127 120 116 122 128 147 148 143 145 181 213 192 151 101 75 59 48 43 48 44 42 37 33 27 42 55 47 36 29 26 24 11 341 305 276 256 249 243 243 247 248
88 99 108 107 98 106 96 86 126 171 119 350 272 237 205 164 107 63 60 56 47 46 47 44 42 40 31 34 49 42 37 35 33 32 29 26 14 345 285 254 247 258 265
75 81 90 86 81 82 83 72 61 166 149 101 2 308 277 222 122 97 64 59 53 48 48 47 47 41 35 35 36 43 40 36 33 31 28 27 26 18 3 336 299 277 270
64 69 76 79 76 75 76 73 58 59 119 136 94 41 28 23 297 145 118 80 63 52 45 43 43 44 35 39 45 46 41 36 32 29 26 29 28 25 20 8 0 350 326
62 65 70 73 72 70 69 67 67 59 60 59 65 72 76 73 19 296 127 99 87 67 49 46 42 38 36 35 31 42 40 37 34 32 30 27 23 21 12 1 351 340 330
67 66 70 72 72 72 71 70 71 69 66 64 60 52 48 46 40 20 55 114 76 79 54 45 38 32 28 24 38 33 35 30 25 23 20 17 14 9 3 355 350 339 326
72 66 69 70 71 75 76 75 72 69 68 67 62 60 56 49 37 20 21 44 23 104 90 62 40 27 18 9 29 7 32 31 16 10 6 1 358 354 353 349 341 334 331
75 74 74 74 73 73 75 74 75 74 71 70 65 57 60 52 41 34 21 357 305 155 114 46 14 26 4 354 27 315 352 35 358 347 343 338 334 329 328 328 329 327 322
83 78 77 77 76 74 74 77 76 74 72 71 73 68 61 62 49 42 31 6 341 332 32 63 12 24 351 347 355 328 330 15 323 319 322 321 316 314 312 309 308 306 304
84 85 82 81 79 77 76 78 84 78 79 73 66 61 50 55 48 42 32 24 8 347 356 26 7 9 355 328 356 323 317 276 252 268 303 311 310 308 304 300 298 296 294
87 86 85 83 81 78 74 74 79 80 78 76 72 70 60 40 32 30 28 22 19 4 346 1 358 6 339 328 334 323 312 306 314 181 277 301 304 305 305 302 300 300 298
85 84 82 80 78 77 75 75 76 75 75 73 67 62 55 50 38 26 13 18 21 0 337 345 338 345 337 325 329 311 317 324 318 149 234 272 284 296 303 303 303 305 305
84 82 80 78 76 74 73 72 72 72 70 65 59 53 45 34 24 27 3 6 1 355 339 324 328 336 325 342 324 318 327 326 315 298 227 230 237 259 279 294 306 312 313
85 84 82 78 74 69 68 70 73 70 66 64 56 43 33 25 17 2 357 356 346 329 326 316 327 332 332 343 325 331 333 337 327 325 330 295 223 221 229 234 263 325 329
88 88 86 80 74 68 48 35 57 64 58 56 50 36 41 31 14 345 343 345 336 329 328 330 330 335 348 345 344 339 332 329 328 339 329 320 304 276 203 193 174 17 339
85 86 80 78 70 60 36 14 355 46 45 38 30 20 53 112 1 245 261 289 306 320 333 329 332 343 341 340 343 330 332 332 332 357 330 326 333 336 339 56 81 42 342
90 87 83 80 77 65 35 14 354 342 39 32 18 2 1 34 331 348 284 237 237 229 251 301 317 329 329 341 333 327 335 329 322 328 325 324 336 336 328 99 128 121 340
92 90 86 83 80 70 37 7 334 309 39 31 15 7 2 6 20 344 326 333 334 332 259 278 311 315 323 328 320 308 305 299 289 285 308 315 335 338 358 105 154 170 183
96 97 91 83 74 78 45 6 331 337 47 42 32 28 2 4 28 335 315 335 342 351 212 232 263 277 286 284 284 296 310 315 326 350 350 324 333 332 329 25 153 179 185
100 97 90 76 60 63 60 15 341 343 26 21 54 92 80 16 356 335 328 344 350 351 339 323 270 251 257 247 231 261 309 322 328 338 5 332 330 332 331 354 10 135 180